TDRS 13 (42915 NORAD) Tracking and Keplerian Element Data

This shows tracking and keplerian element data for the satellite.

Feedback or suggestion? Click here.




ElementValue
Catalog42915
NameTDRS 13
Epoch Orbit1505
Epoch Day269.83290234
Epoch Year2021
RAAN331.5271
Inclination4.8654
Eccentricity0.0015348
Argument of Perigee119.3228
Mean Anonmoly203.311
Mean Motion1.00272632
Decay Rate-1.02E-06
L11 42915U 17047A 21269.83290234 -.00000102 00000-0 00000-0 0 9995
L22 42915 4.8654 331.5271 0015348 119.3228 203.3110 1.00272632 15053

Live tracking and technical data element details for TDRS 13 (NORAD 42915). TDRS 13 can be tracked NOW for your location showing map with azimuth and elevation plus other details from your city location.

Track the satellite on the map from your city or location and see movement details for azimuth, elevation, latitude, longitude, range, height, and movement on the map or in text.







IsCatalogInMostPopularTable: catalog: 42915, numindb: 600
Update: records affected: 1



GetName: 42915 TDRS 13

Hit Count: updated at: Tue, 28 Sep 2021 16:20:16 GMT